Theta_e
283 282 285 287 288 287 286 286 285 284 284 283 284 284 286 283 284 283 283 284 283 284 286 288 288 287 289 287 287 286 287 288 291 291 291 291 292 292 292 293 293 292 292 290 289 288 287 286 287 286 287 287 288 288 288 288 289 290 290 291 291 291 290 289 287 287 287 288 288 288 288 288 288 288 287 287 287 287 286 286 286 286 286 286 286 285 285
284 283 283 285 286 284 284 285 285 287 284 285 286 287 287 285 285 287 282 282 283 286 288 288 289 288 288 288 286 286 287 287 291 290 290 291 291 292 293 293 292 291 291 289 289 288 286 287 287 287 288 288 289 289 289 288 289 288 290 289 289 289 288 287 287 287 287 288 288 287 288 287 286 286 286 286 286 285 285 285 285 285 285 285 285 285 285
282 282 283 284 284 284 283 283 285 286 287 287 287 287 287 285 285 286 283 283 286 288 290 288 287 286 286 286 287 288 287 288 291 291 291 292 293 293 293 291 291 291 290 289 288 287 288 287 288 289 289 289 289 289 288 288 288 288 289 288 288 287 287 286 286 287 287 286 286 286 285 285 285 285 285 285 285 284 284 284 284 284 284 284 284 284 284
277 280 281 281 281 282 282 283 283 284 285 284 286 285 285 284 285 286 285 284 285 287 289 288 287 285 286 287 288 287 287 287 292 292 292 293 293 293 293 292 290 290 289 289 288 288 288 288 288 289 289 289 289 288 288 288 287 287 288 287 287 286 285 285 286 285 285 285 285 284 284 284 284 284 284 284 284 284 284 283 283 283 283 283 283 283 283
276 279 282 280 280 280 277 280 284 286 286 287 287 287 286 288 289 285 283 285 287 286 286 287 286 285 286 287 287 287 286 286 292 294 294 294 294 294 293 292 291 290 290 290 289 288 288 288 289 288 288 288 288 288 287 287 287 287 286 286 285 285 284 284 284 284 284 284 283 283 283 283 283 283 283 283 283 283 283 282 282 283 282 283 282 282 282
275 275 280 281 281 275 279 290 289 288 286 286 284 285 287 288 288 288 290 290 286 286 285 287 287 286 288 289 290 289 290 288 288 291 293 295 294 291 291 292 292 291 290 288 288 288 288 287 287 287 286 287 287 286 286 286 286 285 285 285 284 284 283 283 283 283 283 283 282 282 282 282 282 282 282 282 281 282 282 282 282 282 282 282 282 282 282
273 273 279 280 276 278 287 283 290 290 290 289 288 289 289 289 289 289 289 289 286 286 288 289 289 289 289 287 287 288 286 289 290 292 292 293 293 293 293 292 291 291 289 287 287 286 287 287 286 286 286 285 285 285 285 285 285 284 284 284 283 283 282 282 282 282 282 282 281 281 281 281 281 281 281 281 281 281 281 281 282 282 281 282 282 282 282
273 273 277 272 276 281 282 281 283 287 290 289 288 286 287 287 288 289 289 291 292 289 286 287 286 287 286 285 284 286 286 287 291 290 292 293 292 293 294 293 293 290 289 288 288 287 286 286 286 286 285 285 285 284 284 284 284 283 283 282 282 282 281 281 281 281 281 281 281 280 280 280 280 280 280 280 280 280 281 281 281 281 280 281 281 281 281
275 274 278 277 278 280 283 283 282 285 284 283 285 282 286 289 289 289 290 291 291 288 287 286 287 284 286 289 292 286 285 287 288 292 292 293 293 294 295 295 294 290 288 287 286 286 285 286 285 285 285 284 284 283 283 283 282 282 282 281 281 281 280 280 280 280 281 280 280 280 280 280 280 280 280 280 280 279 280 280 280 280 280 280 280 280 280
273 274 271 271 273 275 281 283 283 289 288 290 290 287 286 290 291 291 291 290 291 289 286 285 285 288 289 287 290 290 286 286 289 289 288 289 289 290 288 287 286 286 286 285 285 286 285 285 285 284 284 284 283 283 282 281 281 280 280 280 280 279 279 279 279 279 280 280 279 279 279 279 279 279 278 278 279 278 280 280 279 279 279 279 280 280 280
273 272 274 273 273 278 281 283 286 289 290 290 287 282 283 287 289 290 291 290 290 288 288 286 285 288 285 288 290 286 290 291 288 287 284 283 285 286 287 288 286 285 286 286 285 285 285 284 283 283 283 283 282 281 280 280 280 279 279 279 279 278 278 278 278 278 278 278 278 278 278 278 278 278 278 278 277 277 278 278 278 278 279 280 280 280 279
276 276 272 275 272 278 281 284 283 287 289 291 288 273 279 284 289 289 290 290 291 289 289 288 288 288 286 288 290 287 290 286 282 285 284 283 283 284 284 285 286 285 285 285 284 284 284 283 283 282 282 282 281 280 279 279 279 278 278 278 277 277 277 277 277 277 277 276 277 277 277 277 277 277 277 277 276 277 277 278 278 279 279 279 278 278 277
276 281 271 269 276 281 279 282 283 286 292 290 280 277 282 285 288 289 291 291 292 290 288 287 287 289 294 292 287 285 284 284 283 282 282 283 284 284 284 284 285 284 285 286 285 285 284 282 282 281 281 281 279 279 278 278 278 278 277 277 276 276 276 275 275 275 274 275 275 275 276 276 276 276 275 276 276 276 277 277 278 278 277 277 277 276 277
277 277 275 275 276 281 285 282 286 289 288 276 279 286 282 285 283 284 288 289 286 287 289 288 290 293 291 281 281 284 285 284 282 282 281 281 282 282 283 284 284 284 284 283 283 282 282 281 281 281 281 280 278 278 278 278 277 276 276 275 275 274 274 274 273 273 273 272 273 274 274 275 275 274 274 275 276 276 276 276 276 276 276 276 276 276 276
270 268 275 272 274 280 286 287 285 286 285 285 285 282 284 281 283 285 284 288 287 288 288 289 290 289 282 282 283 283 283 283 282 282 282 282 282 282 282 282 283 284 283 282 282 282 281 280 280 280 280 278 277 277 277 276 275 275 274 274 274 273 273 272 272 271 271 272 273 273 273 274 274 274 274 275 275 275 274 274 274 274 275 275 275 274 274
277 277 275 278 283 286 288 289 287 288 289 284 285 288 289 284 281 285 286 285 286 287 289 288 287 284 282 282 281 282 281 282 281 281 280 281 281 281 281 283 283 282 283 282 281 279 279 279 279 279 279 277 276 276 275 274 273 273 273 272 272 272 271 271 271 271 270 271 271 272 272 273 273 273 273 273 273 273 274 274 273 273 273 273 272 272 272
278 280 283 285 283 288 289 288 288 293 289 284 288 290 291 288 285 282 285 288 285 285 288 286 286 283 283 284 283 283 282 281 281 281 281 281 282 282 282 281 280 280 281 280 279 277 277 277 276 276 276 276 275 274 273 273 272 272 271 271 271 270 270 270 270 270 270 270 271 271 271 273 273 273 272 273 272 272 272 272 272 271 271 271 270 270 271
285 285 284 282 281 283 285 282 282 286 289 282 283 286 289 286 287 285 288 286 286 285 284 286 281 285 284 282 282 281 280 281 280 279 279 279 279 280 279 279 279 279 278 278 277 276 274 274 274 273 273 275 274 273 272 272 272 271 271 270 270 270 270 270 270 270 271 270 270 270 271 273 273 274 273 273 272 271 271 270 270 271 270 270 270 270 270
284 281 287 284 285 284 287 287 285 283 283 283 282 284 287 287 284 285 282 285 286 286 285 288 287 284 282 283 282 281 280 281 280 280 281 280 280 280 279 279 278 277 277 277 276 275 274 273 273 273 272 272 272 272 271 271 271 270 270 270 270 270 270 270 270 271 271 271 271 271 271 271 271 271 271 271 271 270 270 270 269 269 270 270 271 271 271
284 286 284 283 283 283 283 284 286 287 287 284 282 281 281 281 282 283 282 282 282 283 285 286 285 283 282 283 282 281 281 281 281 281 280 280 279 278 279 278 277 277 277 277 275 274 274 272 272 271 270 269 269 270 270 270 270 270 270 270 270 270 269 270 270 270 271 271 271 271 270 270 270 269 268 269 270 269 269 269 269 268 268 270 270 271 270
284 282 280 280 284 287 286 285 284 286 289 287 282 281 282 282 285 282 281 281 282 284 286 284 284 282 282 284 284 283 282 281 281 281 281 280 279 278 277 276 276 277 277 276 275 274 273 271 270 269 267 267 268 268 269 269 269 270 270 269 269 269 269 269 269 270 270 270 270 270 268 268 266 267 268 268 268 267 267 267 268 269 269 270 270 269 269
284 285 285 285 284 281 287 287 288 286 282 284 283 281 283 283 284 283 285 282 281 282 282 284 285 285 283 283 282 282 282 282 282 281 280 279 278 277 276 276 276 276 275 275 274 273 272 270 268 267 266 267 267 268 268 268 269 269 269 269 268 268 269 269 269 269 268 268 267 268 268 268 268 266 271 271 269 268 268 274 276 276 275 270 270 267 268
285 288 285 289 287 284 287 291 289 284 283 285 285 286 286 284 282 283 285 284 283 282 281 280 283 284 284 283 282 282 282 282 282 281 280 278 277 276 275 275 274 275 274 273 273 272 270 269 268 267 266 266 266 266 267 268 269 269 269 269 269 268 268 268 268 267 267 266 265 265 265 267 267 269 270 272 276 277 276 277 278 278 278 277 276 275 271
285 283 288 287 285 286 286 285 287 285 284 286 288 286 284 285 284 283 284 286 287 284 281 281 281 282 282 282 282 282 281 279 279 279 278 278 277 276 275 276 275 274 273 273 272 272 270 269 268 266 266 265 265 266 266 267 268 269 269 269 269 268 267 266 266 266 265 265 265 265 265 265 268 269 269 268 268 275 277 277 277 277 276 277 277 276 275
286 283 283 282 281 281 281 281 283 284 283 285 286 285 283 283 282 282 284 282 281 283 283 283 280 280 281 281 282 282 281 279 279 279 277 277 276 275 275 275 275 275 274 274 273 272 270 269 267 266 265 264 264 264 265 265 266 267 268 268 268 266 266 266 266 266 266 265 265 265 265 265 266 266 266 266 266 267 271 276 276 275 275 276 276 275 275
283 282 281 280 281 281 282 283 283 281 281 282 281 281 281 282 281 280 281 280 280 279 281 280 280 279 280 280 280 278 277 277 277 277 276 276 275 274 275 275 275 275 274 273 272 271 270 268 267 266 265 264 263 264 264 264 265 266 266 267 267 267 266 267 266 266 266 265 265 265 265 266 265 265 264 264 265 266 266 266 265 269 273 274 274 274 274
283 285 287 287 284 284 282 284 286 282 280 280 280 280 279 279 280 278 276 276 276 277 278 278 279 278 277 278 278 277 278 276 275 277 276 276 275 276 275 274 274 274 274 273 272 271 270 268 267 266 266 265 263 262 262 263 264 265 265 266 266 266 266 266 267 267 266 266 265 265 264 264 264 263 263 261 262 264 265 265 264 262 259 261 268 272 268
286 282 282 286 284 285 284 282 281 281 279 279 280 278 275 276 277 277 277 278 277 275 275 274 277 277 278 276 278 276 275 276 276 276 276 276 276 274 274 274 274 274 274 273 272 271 269 268 267 266 265 262 261 261 261 262 263 264 264 264 265 265 265 265 265 265 266 266 265 265 264 264 263 262 261 262 263 261 261 261 261 260 258 257 256 267 270
283 281 283 285 286 284 282 281 281 280 278 276 276 276 277 278 274 275 275 276 274 275 277 277 276 277 280 277 278 278 278 277 277 276 277 276 275 275 274 274 273 272 272 272 271 270 269 267 266 265 265 262 261 260 260 261 262 263 263 263 264 264 265 264 264 265 264 264 264 264 265 264 263 261 262 261 261 260 260 259 259 257 256 255 256 258 263
279 280 282 282 283 284 284 282 281 278 278 278 279 277 278 279 278 278 276 275 273 276 276 274 275 276 275 277 278 279 278 277 277 276 276 275 275 273 272 272 270 267 267 269 270 269 268 267 266 265 265 261 260 259 260 261 262 263 263 264 264 265 265 265 264 264 264 264 264 265 263 262 261 261 262 261 260 260 260 259 259 258 255 254 260 255 255
278 279 280 281 282 282 285 284 281 280 280 280 280 280 279 279 278 277 277 276 274 276 275 274 273 272 272 277 277 275 274 273 272 272 271 270 270 270 270 270 271 270 270 271 271 269 268 267 266 266 264 261 260 259 260 261 262 263 263 264 264 265 265 265 265 264 264 263 264 264 263 262 261 262 262 262 260 259 258 258 258 257 256 254 255 255 255
280 280 279 278 278 280 280 280 281 280 279 279 279 280 280 281 282 282 279 277 277 275 272 270 271 275 276 274 272 271 270 269 269 269 269 269 269 269 270 271 273 271 269 268 268 268 267 267 266 266 262 260 260 259 260 260 261 262 263 263 263 264 264 265 264 264 263 263 263 263 262 262 261 261 261 261 261 260 258 257 256 256 256 255 256 255 255
282 281 280 279 278 279 280 278 279 279 277 279 281 282 281 281 282 282 282 281 277 274 273 273 274 276 274 271 269 269 267 265 265 267 267 268 269 269 269 269 270 268 266 267 268 268 267 267 267 263 260 260 259 259 259 260 261 262 262 262 263 264 264 265 264 264 263 263 262 262 262 262 261 262 261 261 260 259 258 257 257 257 257 255 255 254 255
285 285 285 283 284 284 282 281 278 278 278 277 276 275 275 276 277 278 278 277 278 277 276 277 277 274 272 272 270 267 266 267 267 267 268 269 268 268 267 268 268 266 262 261 265 266 266 266 264 262 261 260 259 259 260 261 262 263 263 263 263 263 263 264 264 263 262 262 262 262 261 261 260 261 261 261 259 259 258 258 257 257 256 255 254 252 259
285 285 284 284 283 282 283 282 280 278 278 277 275 272 273 272 271 274 274 274 275 278 279 278 275 274 271 269 268 267 267 271 273 273 270 269 268 267 266 266 264 262 263 261 262 264 265 265 263 261 260 260 259 259 259 260 261 262 262 263 263 263 263 263 263 263 263 262 261 260 260 260 260 261 261 260 259 259 259 258 257 256 255 255 254 253 255
279 280 279 278 278 278 278 278 278 277 277 277 276 275 273 273 272 271 272 272 272 272 273 271 268 267 267 268 268 268 269 271 273 272 270 269 267 265 264 264 264 264 265 265 263 262 262 263 262 261 260 259 259 259 259 260 261 262 262 262 262 263 263 263 263 263 262 262 261 261 260 261 260 260 260 259 258 258 258 257 257 257 256 255 254 253 253
275 276 275 274 274 275 275 275 275 276 276 275 276 275 274 273 271 271 270 270 269 271 269 266 265 266 269 270 271 268 267 269 270 271 268 266 264 264 264 264 264 264 265 265 268 264 262 263 261 261 260 260 260 260 260 260 261 261 261 262 262 262 261 262 262 262 262 261 260 261 261 261 259 259 259 258 258 258 258 258 257 256 256 256 256 255 254
270 270 271 271 271 272 271 271 271 272 272 271 271 271 271 270 270 270 270 269 268 268 267 268 271 271 270 267 266 268 269 268 268 267 265 264 264 264 263 264 264 264 264 267 266 265 264 263 261 261 261 260 260 260 260 260 261 261 261 261 262 262 262 262 262 262 262 261 260 261 261 260 260 259 259 258 258 258 258 257 257 257 257 256 255 255 254
268 267 267 267 268 267 267 268 267 266 267 267 268 267 266 265 264 265 266 266 266 266 266 268 266 267 266 266 269 268 268 268 267 266 264 263 263 265 266 266 267 267 267 262 263 264 263 262 261 261 261 261 261 261 260 260 261 261 261 262 262 262 262 262 262 262 262 261 261 260 260 260 259 259 258 258 257 257 257 257 256 256 255 255 255 255 254
263 263 262 263 264 263 263 262 262 262 262 261 262 262 261 262 263 264 265 265 266 265 266 267 266 269 269 268 269 270 270 268 266 265 265 263 262 262 264 265 265 265 262 260 261 261 261 261 261 261 261 261 261 261 260 260 260 261 261 261 262 262 262 262 261 261 261 260 260 260 260 259 258 258 258 257 257 257 256 256 257 256 256 255 255 254 254
258 258 259 259 259 259 258 259 259 259 259 259 258 257 258 258 260 262 264 263 263 263 264 266 267 269 270 270 270 271 266 265 265 265 264 261 261 262 263 267 267 266 264 262 261 260 260 260 261 261 261 261 261 260 261 260 261 261 261 261 261 261 261 261 261 261 261 260 260 260 260 258 257 257 257 257 256 256 256 256 256 257 257 256 255 254 253
254 254 255 255 256 255 254 254 255 257 258 257 256 256 255 256 257 259 260 259 260 261 262 263 265 268 267 266 266 265 263 261 263 264 263 265 266 265 264 267 261 262 263 262 261 260 260 260 260 260 260 260 260 260 260 261 261 260 260 260 260 260 260 260 260 260 261 260 260 260 260 259 258 257 257 256 256 256 256 256 256 256 256 255 255 255 254
253 253 253 253 253 253 253 254 254 254 255 255 255 254 254 254 255 256 256 257 257 258 259 261 261 262 263 263 264 265 265 261 261 262 262 264 265 264 268 262 255 259 261 261 260 260 260 260 260 260 260 260 259 260 260 261 261 260 260 260 260 260 260 260 260 260 260 260 260 260 259 259 259 258 258 258 258 257 256 256 256 256 256 255 255 254 253
251 251 251 252 252 252 252 252 253 254 254 255 254 252 251 252 252 253 254 255 256 256 256 257 258 258 259 259 260 264 264 260 260 261 261 263 263 264 261 256 254 258 260 260 260 259 259 259 259 259 259 259 259 260 260 260 260 260 260 260 259 259 259 260 260 260 260 259 259 259 259 259 258 258 258 258 257 257 256 256 256 255 255 254 254 254 253
250 250 250 250 249 250 251 251 251 252 252 252 251 251 250 249 250 250 250 253 254 255 255 255 255 256 257 257 259 261 259 258 261 261 261 262 262 264 258 258 257 258 259 259 259 258 258 258 259 259 259 259 259 259 259 259 260 260 260 260 259 259 259 260 260 260 260 259 259 259 259 259 258 258 258 258 257 257 256 256 256 255 254 254 254 253 253
249 249 249 251 250 249 249 249 249 248 248 250 250 251 251 248 248 249 249 248 250 252 251 251 250 252 253 254 256 256 254 254 253 257 259 259 263 259 255 257 256 258 258 259 257 258 256 259 259 259 259 259 259 259 258 258 259 259 259 259 259 259 259 259 259 259 259 259 259 259 258 258 258 257 258 257 257 256 256 256 255 254 254 254 254 254 254
248 248 248 247 248 248 248 247 248 250 250 251 252 251 253 249 248 248 248 247 248 249 248 247 247 248 248 249 253 256 258 260 260 258 255 251 253 255 256 258 257 258 258 258 257 257 256 258 258 258 258 258 258 258 258 258 259 259 259 259 259 259 259 259 259 258 258 258 258 258 257 257 257 257 257 256 256 256 256 255 255 255 255 254 254 254 254
247 247 248 247 247 247 247 248 250 250 249 250 249 249 250 248 246 246 247 248 250 250 252 251 251 250 251 252 253 255 257 258 259 260 257 255 254 255 256 257 257 257 258 258 257 257 258 258 258 258 258 258 258 258 258 258 259 258 258 258 258 258 258 257 258 257 257 257 257 256 256 256 256 256 256 256 255 255 255 255 255 255 254 254 254 254 253
245 246 247 247 246 247 248 249 250 250 249 249 248 250 249 248 247 248 248 248 247 248 248 248 248 250 252 253 253 254 255 256 258 258 257 255 256 257 257 258 257 257 258 258 258 258 258 257 258 258 258 257 258 258 258 258 258 258 258 257 257 257 257 257 257 257 256 256 256 256 256 256 256 256 255 255 255 255 255 254 254 254 254 254 254 253 253
245 247 247 248 248 249 248 248 248 247 248 249 249 250 248 248 249 250 249 247 247 250 247 247 248 249 251 251 253 253 255 255 256 257 257 257 257 257 257 257 257 257 257 258 257 258 257 257 257 257 257 258 258 258 258 258 258 258 257 257 257 257 256 256 256 255 255 255 255 255 255 255 255 255 255 255 255 254 254 254 254 254 254 254 253 253 253
246 246 246 247 247 246 245 245 247 248 246 248 247 248 249 249 249 251 250 249 248 249 250 249 249 249 250 251 252 253 254 255 255 256 257 257 257 256 257 257 257 257 256 257 256 256 257 257 257 257 257 257 257 257 257 257 257 257 256 256 256 256 255 255 255 255 255 255 255 255 255 255 255 255 254 254 254 254 254 253 253 253 253 253 253 253 253
244 244 245 244 242 243 243 243 243 244 244 245 246 247 248 249 249 250 249 253 249 249 249 249 251 249 248 247 250 251 253 253 254 254 255 255 256 255 255 255 255 255 256 256 256 256 256 256 255 255 256 257 257 257 255 255 256 256 256 255 255 255 255 255 255 254 254 254 254 254 254 254 254 254 254 254 254 253 253 253 253 253 253 253 253 252 252
Wind_Speed
3 1 9 13 12 11 8 9 7 7 9 8 15 19 13 9 14 18 5 9 8 6 8 10 8 8 9 6 5 5 3 2 4 5 4 4 4 4 5 7 7 8 8 6 6 5 5 5 5 4 4 4 5 5 5 5 5 6 6 8 8 8 8 9 7 7 7 6 7 7 7 8 8 8 8 7 7 7 7 7 7 7 6 7 8 8 7
2 1 6 8 13 6 7 12 14 14 11 16 20 22 14 12 13 7 5 4 7 5 8 8 8 3 1 1 1 2 4 4 4 5 5 6 7 8 10 10 8 6 7 7 7 7 6 6 6 5 5 6 6 8 7 5 6 4 7 7 8 8 8 8 7 7 7 7 7 7 7 8 7 8 8 7 8 8 7 7 7 7 7 7 7 7 8
4 1 3 1 6 9 8 7 11 15 19 21 23 19 12 7 11 12 4 7 14 6 10 6 4 1 1 2 2 7 5 4 6 6 7 8 9 10 8 6 6 7 7 7 7 8 8 8 8 8 7 7 7 7 7 7 7 5 7 8 7 8 8 6 7 8 8 7 7 8 7 7 7 8 8 7 8 8 8 7 8 6 7 8 7 6 7
4 2 5 3 3 2 8 10 11 16 19 20 16 11 5 6 16 15 11 12 17 1 7 3 1 2 4 5 7 6 5 6 7 9 9 8 10 10 10 8 7 8 10 11 12 12 10 9 9 8 8 7 8 9 8 8 8 7 8 9 9 8 7 7 8 9 8 8 9 7 7 7 7 6 7 8 8 8 8 8 6 6 9 7 7 5 6
6 1 7 7 5 4 2 10 22 23 16 13 9 9 9 18 18 12 11 22 2 4 4 6 1 5 7 9 7 6 3 4 9 11 12 13 11 10 8 10 12 12 14 15 14 11 9 10 10 7 6 8 8 9 9 8 8 9 9 9 9 9 7 7 8 9 9 9 9 8 6 6 6 7 8 8 8 8 8 6 6 8 7 7 6 5 6
5 2 7 4 6 7 15 12 9 15 20 19 12 12 17 17 10 14 15 11 4 6 7 6 7 8 9 10 11 7 7 9 8 8 8 11 10 7 7 9 12 12 7 6 8 9 9 7 6 6 5 6 6 6 9 9 10 9 10 9 9 9 8 7 7 8 10 10 9 8 7 6 7 7 8 8 6 6 6 6 7 7 6 7 6 6 5
4 3 8 7 9 16 9 2 11 20 15 13 19 22 17 15 14 16 14 10 4 6 8 9 10 10 8 5 5 5 4 7 10 12 13 11 11 14 14 12 11 12 11 7 7 8 9 9 8 8 7 6 7 7 8 10 8 10 8 9 8 8 8 6 6 7 9 9 10 8 7 7 7 8 8 7 7 5 6 6 7 7 6 7 6 5 5
4 3 7 7 16 6 4 4 2 3 11 14 14 12 10 8 10 14 16 20 15 7 5 3 3 5 5 4 5 8 6 6 8 9 11 12 12 13 14 16 15 13 14 16 14 11 8 9 8 7 9 7 8 7 6 9 10 8 9 9 8 8 8 6 6 6 9 9 9 8 7 7 8 8 7 7 7 5 6 6 5 5 5 5 6 5 5
7 5 9 10 5 7 7 7 4 8 10 7 12 12 17 15 14 16 20 20 10 5 6 5 1 1 1 3 9 6 6 8 9 12 12 12 15 15 14 13 14 11 7 7 7 8 8 8 9 9 8 8 8 8 9 8 10 9 9 9 9 8 7 6 6 6 7 10 9 9 8 8 8 8 8 7 6 4 7 6 6 6 5 5 4 6 5
6 7 2 1 5 11 17 2 1 5 5 11 11 10 14 9 16 16 15 16 12 7 4 5 5 1 2 9 14 9 6 8 10 10 6 2 4 5 4 4 6 8 9 8 7 11 11 9 8 8 8 9 9 9 9 8 10 8 8 8 7 7 7 5 5 5 5 8 10 8 8 9 9 7 5 4 5 3 7 7 7 5 5 6 5 5 6
5 3 7 8 10 15 2 8 9 11 10 12 7 4 16 7 11 9 14 14 8 8 10 8 7 7 8 14 11 4 11 13 8 4 1 1 2 4 7 10 12 11 11 12 11 10 11 12 9 8 9 10 9 9 8 9 8 9 8 8 8 8 7 5 5 5 6 7 8 9 9 7 7 8 6 6 5 4 5 5 6 5 5 6 6 6 5
7 8 5 10 5 7 5 7 6 9 9 14 10 2 14 1 11 12 13 15 15 11 13 10 11 12 12 14 9 7 10 5 2 5 6 4 5 5 6 6 9 11 11 13 11 12 13 12 10 11 10 10 10 10 9 9 10 10 10 9 8 7 7 6 5 5 5 6 7 8 10 8 6 7 5 6 6 6 5 5 7 6 5 6 7 6 5
5 8 5 3 8 4 4 5 4 10 13 13 10 17 8 7 10 12 14 17 16 12 9 9 10 11 13 8 1 4 4 5 2 2 2 3 5 9 8 9 10 11 11 12 15 15 12 12 12 12 12 12 12 10 11 11 11 10 9 8 8 7 7 6 6 6 4 6 9 6 6 8 7 6 5 6 6 6 7 6 6 6 6 6 7 6 5
10 9 8 9 6 7 10 0 12 12 10 6 15 8 2 8 5 3 8 9 5 7 11 10 11 12 8 1 0 2 5 5 4 4 5 6 5 4 5 11 11 10 9 9 9 9 9 12 12 12 12 13 12 12 11 12 11 8 8 8 8 8 8 7 6 6 6 5 5 7 6 8 9 7 5 5 6 6 6 7 8 8 6 5 6 6 5
5 3 5 1 12 4 11 13 1 4 9 13 7 3 0 3 6 9 5 8 8 10 9 12 13 9 1 3 4 4 4 5 8 9 9 10 12 13 13 10 8 13 13 12 13 13 10 11 11 11 12 13 12 11 13 11 9 9 8 8 8 8 7 7 6 6 5 6 7 6 7 6 9 9 6 7 6 6 7 7 8 8 7 6 6 5 4
10 10 10 11 7 8 14 21 14 13 10 4 8 7 6 2 5 7 8 7 8 11 10 11 10 6 4 1 3 3 3 2 3 3 3 3 4 5 4 6 11 9 10 9 10 8 8 9 9 10 13 14 12 12 11 8 8 8 8 7 7 7 7 7 7 6 5 5 5 5 7 7 7 10 8 7 6 5 6 7 8 8 5 5 5 5 4
7 9 12 10 6 13 12 7 5 16 10 5 10 10 9 8 6 4 6 10 7 9 10 7 8 6 8 6 7 8 8 6 7 9 8 8 8 9 9 9 6 5 10 12 10 8 6 7 6 6 5 11 12 11 8 8 9 10 9 9 9 8 8 7 7 6 6 6 6 5 5 7 9 9 8 7 8 4 6 6 7 8 6 5 5 5 4
5 5 4 1 2 1 6 3 3 5 10 3 2 6 7 5 6 11 8 8 9 8 6 7 4 8 8 6 7 4 5 6 5 4 4 4 5 5 6 7 8 7 8 8 10 11 6 5 6 5 5 8 15 11 10 9 9 10 11 11 10 10 8 8 7 7 8 6 5 5 5 4 5 6 8 8 8 7 6 6 6 7 7 5 5 4 4
8 10 10 7 5 3 8 6 1 1 1 4 4 4 6 6 7 8 4 6 9 10 10 10 10 8 7 8 6 5 5 8 9 9 9 8 10 12 12 10 10 10 11 12 13 12 12 8 8 6 6 5 4 9 11 9 9 9 9 10 10 9 8 7 6 6 8 8 7 6 5 5 5 5 5 6 8 7 6 7 7 6 6 6 5 5 4
12 13 5 5 1 3 4 4 4 3 5 2 2 2 2 2 3 4 5 4 4 6 7 8 7 7 7 9 9 8 9 10 9 9 10 10 8 6 6 9 9 9 11 13 14 13 12 9 7 6 6 6 7 8 8 9 9 9 9 10 11 10 9 8 7 7 7 7 8 7 6 6 7 6 5 5 7 7 7 7 8 7 6 6 6 6 5
5 3 2 1 3 0 1 5 6 5 7 8 3 2 3 4 6 4 3 1 5 6 6 6 7 8 9 10 12 12 8 7 8 11 11 10 9 9 11 10 10 12 11 12 12 12 10 7 7 7 7 7 8 10 9 9 11 12 11 9 8 9 8 7 7 6 6 7 6 7 7 5 3 4 6 6 6 5 3 3 4 6 6 6 6 4 5
10 15 10 11 7 4 9 9 11 8 4 5 5 3 3 3 5 5 6 1 1 2 4 7 8 10 10 9 7 10 11 12 12 9 9 9 10 9 6 7 8 8 9 11 12 11 9 7 7 8 8 8 8 8 8 9 10 12 12 10 9 9 8 7 7 7 6 5 5 6 7 7 7 5 4 7 4 5 4 7 9 8 6 4 6 5 6
16 12 6 13 6 4 8 13 9 5 6 8 8 8 7 6 4 6 7 4 1 2 3 3 6 6 7 10 7 6 7 9 8 9 10 12 11 10 10 10 9 10 9 8 8 9 9 8 8 9 9 9 9 8 8 9 10 11 12 11 9 8 8 7 7 7 7 7 6 5 6 7 7 8 7 6 7 7 6 9 9 10 11 12 12 9 6
3 2 12 11 6 6 4 7 9 9 8 10 10 7 5 7 9 8 6 7 8 6 4 4 5 5 4 6 10 10 6 4 7 8 7 5 7 8 9 11 11 11 11 12 13 13 10 10 9 9 9 8 9 9 8 8 7 8 10 11 12 10 8 7 8 7 6 7 7 7 6 6 7 8 8 8 5 7 10 10 10 10 10 11 11 11 10
4 2 4 4 4 3 1 3 4 5 6 6 7 8 8 6 4 5 6 4 1 5 6 6 3 3 5 6 7 9 8 6 6 7 8 8 8 11 11 10 12 15 14 12 9 9 10 10 10 9 10 9 8 8 8 8 8 9 9 8 10 10 9 9 8 8 8 8 8 8 9 9 8 7 9 9 10 8 5 9 10 10 10 10 10 10 10
6 7 6 4 4 4 1 4 4 2 2 0 1 2 2 3 4 4 1 2 1 1 3 3 4 2 4 6 5 3 4 4 5 7 8 9 8 8 12 16 14 8 8 8 9 9 10 11 11 10 10 10 10 10 9 9 9 10 9 8 9 11 12 12 10 10 9 8 9 8 7 7 8 8 7 8 8 10 10 7 5 6 7 8 9 9 10
5 8 12 9 5 2 0 4 5 5 3 1 2 3 3 4 5 4 3 3 2 1 2 3 3 3 2 3 5 4 6 5 5 7 7 8 12 14 9 5 7 8 8 8 8 9 11 11 10 11 11 10 9 8 9 9 10 9 8 8 7 7 10 9 9 10 8 8 8 8 8 8 8 8 8 7 8 9 10 11 10 8 5 1 2 8 5
6 1 1 7 6 6 4 1 4 6 4 4 5 5 4 4 5 5 4 3 3 3 2 2 5 5 4 4 6 5 5 8 10 7 8 12 8 4 6 7 7 8 8 9 8 9 10 10 9 8 7 6 8 8 8 8 9 8 8 7 7 7 8 8 7 7 7 8 8 8 9 8 7 7 7 8 8 8 6 5 8 8 4 4 2 1 7
2 3 3 3 6 6 7 6 6 7 5 4 4 4 5 6 3 4 3 2 1 1 2 1 1 4 5 5 5 7 7 7 8 12 12 6 5 6 6 8 8 8 7 8 8 9 10 10 10 10 10 9 9 9 9 9 9 9 9 8 8 8 8 8 7 7 7 7 7 7 6 7 8 6 7 6 6 6 7 7 7 4 6 3 1 0 2
3 2 5 7 8 8 10 6 6 4 5 4 6 3 2 6 5 1 1 2 1 3 3 1 2 2 3 5 6 8 10 11 10 6 5 6 6 7 8 7 6 4 4 6 11 10 11 11 12 13 12 10 10 9 10 9 9 9 9 9 9 9 9 9 9 9 9 9 8 8 7 7 7 7 7 7 7 7 8 7 6 7 7 5 5 7 5
4 5 6 5 7 4 7 7 4 4 4 3 4 5 2 2 3 3 3 2 1 3 2 3 4 3 4 7 6 4 3 3 4 4 5 5 7 8 9 11 13 14 16 17 14 12 12 13 12 12 8 10 10 11 11 11 9 9 8 8 7 8 8 11 10 11 11 9 9 8 8 7 7 8 9 9 8 8 7 7 6 6 6 5 6 7 6
9 7 7 5 4 4 5 4 6 5 5 4 5 6 8 7 4 4 4 6 7 6 4 4 5 8 8 3 2 3 3 3 4 4 5 6 8 9 11 13 14 9 4 3 6 10 10 9 11 10 7 10 10 11 11 10 9 10 10 8 10 7 9 13 8 8 8 9 9 9 9 9 9 8 8 8 8 8 7 7 7 6 6 6 6 6 5
8 5 2 2 3 2 1 0 5 5 6 6 7 4 3 2 0 1 2 1 1 2 4 5 6 6 2 3 4 4 4 3 3 4 5 8 8 9 9 8 8 6 4 4 6 8 10 13 10 6 8 9 10 10 10 10 9 9 9 9 9 8 8 10 8 9 7 8 9 10 9 9 9 9 9 9 8 8 7 8 7 7 7 7 7 6 5
9 8 9 10 11 10 8 7 5 4 4 3 2 1 3 3 3 2 2 1 1 1 4 7 5 2 3 4 4 4 4 4 3 6 8 8 8 7 7 8 7 5 1 0 4 7 8 8 6 7 8 10 10 10 10 10 9 9 9 10 9 9 10 10 10 9 9 10 9 9 8 9 9 9 9 9 8 8 9 8 8 7 7 6 7 6 7
6 5 3 7 6 4 6 7 8 7 6 5 5 4 5 4 3 4 1 1 5 8 4 1 2 4 4 4 4 5 6 9 9 8 9 9 8 8 6 6 5 5 5 4 5 6 6 8 8 8 9 9 10 10 11 11 10 9 9 10 10 9 9 9 10 11 11 10 8 8 8 9 8 7 8 8 8 9 8 8 7 7 7 7 6 4 4
1 2 2 2 1 1 1 1 1 2 4 4 3 2 2 4 4 4 4 3 2 2 1 1 2 3 4 5 6 8 10 10 8 6 5 6 5 5 6 7 8 9 9 10 8 6 5 7 9 11 9 10 10 11 11 11 10 9 9 9 9 8 8 9 8 7 7 8 9 9 8 8 7 9 8 7 7 7 7 7 8 7 8 7 6 5 5
4 3 3 4 4 4 4 3 2 1 0 0 1 1 1 0 2 4 3 4 4 2 2 4 4 4 8 9 7 5 5 6 7 7 5 4 6 7 7 7 7 10 9 12 13 10 9 9 11 15 11 8 10 11 11 12 10 9 8 7 9 8 8 8 8 9 9 8 8 8 8 7 8 8 9 8 8 7 7 8 8 7 7 6 6 6 6
5 6 6 5 5 7 6 5 5 7 5 6 5 4 3 3 3 1 2 2 3 4 4 4 6 7 4 2 3 6 7 6 6 6 5 6 7 8 7 9 10 8 9 15 4 11 9 11 15 11 9 9 7 6 8 14 9 9 7 6 9 9 9 9 9 8 8 9 9 9 9 9 9 8 8 7 7 7 8 8 8 7 7 6 6 6 7
7 5 6 5 6 6 5 6 7 7 8 6 3 3 4 5 4 4 4 3 3 2 4 5 3 2 4 4 6 6 7 7 6 6 5 7 7 10 13 14 13 14 10 2 7 7 10 13 12 11 9 8 9 8 10 14 12 6 6 9 10 10 9 8 9 8 8 7 8 9 8 8 7 8 8 8 7 7 8 8 8 8 7 7 6 6 6
6 6 5 5 7 6 6 6 6 6 5 4 5 4 6 6 6 5 4 4 5 3 2 2 4 5 6 6 7 8 8 5 5 5 7 6 6 7 8 9 11 8 5 5 4 5 9 14 12 10 10 10 10 8 7 12 15 10 8 10 13 12 9 7 9 8 8 8 9 6 6 6 6 6 6 6 6 7 7 7 7 7 7 6 6 6 6
6 5 5 7 5 6 5 5 5 4 4 5 5 4 4 5 5 4 5 5 6 6 4 2 4 6 6 7 8 7 2 3 5 7 5 5 5 8 8 13 5 8 10 8 7 6 10 11 10 10 8 9 9 11 8 14 12 7 8 9 11 14 13 12 9 10 10 9 7 7 8 5 5 4 5 5 5 5 6 6 7 6 6 6 6 6 6
3 3 4 6 6 5 4 3 3 4 5 5 5 5 5 5 4 4 4 4 5 5 5 4 4 5 5 5 5 5 3 3 4 6 9 12 12 9 8 12 1 3 9 10 9 8 8 9 9 9 9 9 9 14 13 11 8 9 9 12 13 12 11 8 8 10 7 8 9 8 6 7 7 6 5 4 4 5 5 5 5 5 5 5 6 6 6
6 7 5 5 4 5 5 5 5 4 4 3 4 5 5 4 4 4 3 4 4 5 6 5 5 5 4 5 5 5 5 2 3 4 5 9 10 8 10 2 3 1 9 6 6 6 7 6 7 7 9 10 9 14 15 8 8 10 10 9 10 10 8 7 7 6 7 8 9 9 9 9 10 9 8 7 6 6 6 6 7 6 6 6 6 6 6
3 4 5 5 4 4 4 4 5 5 6 6 5 5 4 4 3 4 4 4 5 4 4 6 5 5 5 4 3 5 5 2 4 4 5 8 8 9 6 4 1 3 8 6 6 6 6 6 6 8 12 14 13 17 12 9 9 8 9 9 10 9 11 8 7 8 11 11 13 12 12 9 10 10 10 10 9 8 7 7 6 6 6 6 5 5 5
4 4 5 5 5 4 5 5 5 5 5 5 6 5 4 6 7 5 4 5 5 5 4 4 4 4 5 4 4 4 4 2 4 4 4 7 9 7 0 5 4 4 5 7 5 5 5 6 7 10 11 14 15 17 11 9 9 8 9 9 7 7 8 8 10 12 11 12 12 11 7 9 9 9 9 8 6 9 9 8 8 6 6 6 6 6 6
4 3 3 5 6 5 2 1 3 2 3 5 5 3 2 4 5 6 5 5 6 4 3 3 3 4 4 5 5 5 5 4 4 4 5 4 6 4 2 1 4 3 7 8 5 6 5 8 10 12 13 15 16 13 9 7 7 8 8 8 9 6 8 8 9 10 8 9 10 10 9 9 8 8 8 8 8 8 7 6 6 6 6 6 6 6 5
3 4 3 3 1 2 3 2 1 1 1 2 4 5 5 5 5 5 6 5 5 5 3 2 2 3 3 2 3 4 6 6 6 4 6 4 2 2 2 3 3 5 7 6 6 5 5 7 9 12 14 16 16 9 8 7 7 5 6 6 6 7 7 7 8 5 5 6 4 4 4 5 7 6 5 5 5 7 8 6 6 6 6 5 5 6 6
3 3 3 3 3 4 2 3 5 5 4 2 1 3 4 3 4 4 4 3 4 4 3 3 4 3 4 4 3 2 2 2 6 5 1 3 1 1 0 2 4 5 6 5 4 4 7 8 10 12 13 14 11 7 7 7 7 6 6 6 6 6 6 6 5 5 5 4 5 4 4 4 4 4 5 5 5 4 5 6 6 6 5 6 6 6 6
1 1 3 2 2 4 4 3 4 4 2 2 2 4 3 2 4 4 4 4 6 5 4 5 5 4 4 4 3 4 6 3 3 6 2 1 2 2 3 2 3 5 4 3 4 3 6 9 9 11 12 12 7 6 6 6 6 5 4 5 4 5 4 5 5 4 4 5 5 4 4 4 5 5 5 5 4 5 6 6 6 6 6 6 5 6 6
3 2 4 5 5 5 4 4 4 2 2 3 4 4 4 3 5 5 2 2 3 5 4 4 3 4 4 4 4 4 3 4 4 3 3 2 2 2 1 1 2 4 4 3 3 2 4 8 8 9 9 6 5 6 5 5 5 6 6 5 7 4 5 4 3 3 5 3 4 4 5 5 5 6 5 5 6 6 6 6 6 6 8 6 6 6 6
6 5 5 5 2 2 2 1 2 3 2 4 3 3 2 2 4 5 4 4 4 5 6 6 4 4 3 4 4 4 4 4 3 4 2 2 1 1 1 0 2 2 2 3 3 3 3 4 5 5 7 5 5 6 5 5 5 5 6 7 7 5 5 4 4 4 5 4 4 4 5 4 5 5 5 6 6 6 6 6 6 6 6 6 6 6 6
3 3 5 3 3 4 3 4 2 1 1 1 2 2 3 3 4 5 5 4 3 5 5 5 7 2 1 2 4 4 4 4 3 3 2 1 1 1 1 3 3 3 3 3 3 3 3 2 3 3 4 4 4 4 3 3 4 4 4 4 4 3 3 3 3 4 4 5 5 5 5 5 5 5 6 6 6 6 6 6 6 6 6 6 6 5 5
Wind_Direction
222 169 149 162 160 187 175 170 172 170 185 162 198 219 215 147 199 230 112 160 201 221 224 217 214 194 208 214 228 225 200 153 141 135 137 150 164 170 172 187 187 175 175 172 165 164 169 157 154 148 132 119 112 103 112 120 119 121 126 115 113 114 110 110 111 113 109 101 101 101 101 103 102 100 96 97 94 91 89 90 86 88 88 88 90 82 74
226 161 172 171 162 171 154 174 178 188 165 200 210 223 211 198 229 238 79 236 227 198 239 228 238 212 173 239 175 147 180 194 142 127 153 175 186 191 194 194 189 183 171 169 171 169 171 169 161 158 149 147 143 138 135 129 116 120 113 109 113 111 111 116 117 112 107 104 103 102 101 101 102 102 101 98 98 94 91 91 89 87 86 82 84 89 88
217 114 114 143 161 143 179 203 188 186 194 207 215 219 216 224 273 271 309 310 278 213 211 229 284 29 124 60 210 212 200 132 153 163 181 192 199 205 204 188 184 180 179 176 173 176 179 174 172 166 166 159 148 136 134 129 123 123 115 113 110 115 117 119 119 113 108 107 106 104 107 106 106 105 104 106 102 96 91 87 88 87 89 84 81 81 86
245 153 138 134 83 149 170 190 202 206 204 212 219 218 190 183 229 236 246 261 252 154 195 172 160 119 151 200 232 239 208 181 163 176 192 199 208 207 199 189 179 185 191 186 183 183 179 178 175 171 166 161 150 144 139 133 130 125 118 119 121 120 122 124 121 117 115 114 109 109 108 107 108 108 107 102 96 95 95 90 87 90 81 83 83 83 87
233 259 133 131 114 96 294 234 210 203 204 210 212 218 201 209 215 219 220 237 169 186 158 128 183 193 207 225 224 231 226 188 188 186 195 204 207 205 185 186 193 196 196 193 185 176 173 177 174 170 156 153 157 150 138 136 127 125 125 126 126 125 130 129 130 124 123 119 115 114 114 116 115 108 103 96 96 96 92 98 95 83 87 87 84 82 85
194 137 139 113 126 204 229 228 185 176 196 203 192 213 215 222 194 222 221 234 130 129 123 144 195 199 213 208 228 202 178 183 203 223 217 208 202 187 197 201 201 202 202 209 190 175 167 159 153 147 149 147 145 141 133 130 128 128 128 127 128 130 128 132 134 129 126 123 121 123 124 118 113 107 101 98 99 96 101 94 92 93 89 87 86 81 82
154 163 113 135 202 226 239 6 182 190 195 173 198 218 215 215 218 239 253 254 199 181 177 187 201 201 230 251 262 269 217 170 185 198 210 211 191 191 194 199 202 200 193 187 174 163 164 158 150 139 133 137 139 135 137 127 125 126 127 127 127 129 127 130 132 129 125 124 123 124 120 115 108 103 102 103 96 96 99 99 98 95 92 90 84 86 83
59 97 156 173 221 227 342 277 355 201 172 197 199 239 246 239 224 225 238 241 228 180 189 237 211 194 239 312 259 242 234 197 197 199 210 210 197 200 199 195 200 186 186 188 179 165 143 141 146 144 142 143 139 138 130 127 127 126 130 128 127 126 128 134 136 134 130 126 121 120 119 113 109 106 103 109 113 114 103 92 82 89 78 82 86 80 75
151 195 181 226 339 337 261 253 209 155 171 146 170 215 243 220 212 208 227 238 231 178 204 193 235 260 322 282 277 257 211 216 214 206 214 203 201 204 207 199 193 179 149 145 153 136 137 137 140 143 143 140 138 137 135 132 128 131 132 132 133 131 129 132 135 136 135 128 125 124 125 118 113 116 118 114 108 115 104 98 100 91 93 83 76 77 71
131 125 191 325 280 255 240 225 253 144 157 164 173 187 258 221 215 211 219 231 225 194 170 167 200 95 240 276 252 227 237 230 228 230 241 294 218 200 152 99 110 129 134 124 135 143 139 141 143 142 143 141 143 141 138 134 129 128 128 125 122 121 123 128 132 133 135 131 128 128 126 123 121 116 107 98 107 110 116 120 105 103 103 89 73 71 73
85 136 166 202 207 238 136 168 178 171 157 144 115 102 252 231 185 197 204 229 223 181 190 201 152 149 220 245 251 185 198 226 222 203 159 28 128 148 159 156 147 145 148 146 142 138 140 145 150 144 142 141 141 141 140 135 129 130 133 133 135 136 136 137 135 134 134 130 128 128 123 121 122 122 121 122 121 107 105 105 103 102 92 94 90 74 70
188 167 171 222 217 241 223 185 192 169 133 114 105 101 252 117 164 193 183 211 219 196 202 176 168 178 223 245 251 203 211 205 132 174 171 145 138 124 125 129 140 138 134 132 142 149 157 156 148 147 144 143 145 148 147 140 139 144 149 147 140 134 136 135 133 125 127 124 124 127 126 123 118 119 125 115 115 113 99 98 103 97 95 95 94 81 67
172 167 239 324 285 260 218 209 164 148 139 124 139 210 224 214 177 184 185 201 211 190 186 156 192 217 219 236 237 202 144 114 100 63 103 137 144 144 141 140 140 141 153 156 160 161 156 152 152 153 149 146 152 156 151 147 154 156 148 141 138 139 134 130 127 125 121 129 128 122 125 126 122 109 107 115 114 110 112 105 103 99 98 99 89 81 62
177 193 192 229 254 235 174 282 155 152 119 188 206 218 214 158 202 201 183 198 180 150 180 190 210 224 224 74 8 135 189 166 143 135 124 113 84 81 125 140 142 139 143 144 140 146 156 157 156 155 153 151 154 158 157 160 157 142 138 138 136 135 137 132 129 124 122 114 113 124 125 121 115 105 95 99 108 115 114 114 110 104 100 93 91 86 77
56 81 209 258 252 237 132 117 84 272 162 217 197 150 342 196 168 161 193 179 200 169 196 206 211 221 168 171 181 201 170 158 164 166 160 157 156 153 150 155 170 154 152 161 165 159 158 159 160 160 153 153 159 163 164 158 142 140 138 136 136 132 128 126 123 123 121 126 127 124 122 120 120 116 118 114 112 114 118 113 108 104 96 97 99 96 86
168 180 194 207 216 107 167 144 175 204 211 189 148 135 163 216 163 175 163 213 191 190 187 199 221 215 173 184 210 165 198 152 122 137 152 132 139 147 158 157 158 161 149 149 148 151 156 158 162 164 161 159 164 164 160 135 131 126 124 123 122 121 122 122 124 123 125 119 116 118 125 128 123 122 122 119 111 114 118 118 118 108 102 104 103 102 98
146 193 213 223 203 167 184 163 174 184 194 173 166 157 165 168 233 195 153 196 204 195 197 189 179 180 215 200 178 180 190 177 174 176 180 176 170 168 162 160 156 151 155 151 142 141 151 157 159 162 168 158 157 155 144 136 138 138 134 133 133 133 137 138 135 135 123 121 121 122 133 139 132 129 126 130 117 116 119 113 115 114 116 115 116 122 117
237 284 229 70 89 166 214 262 229 205 183 208 182 160 150 229 172 169 182 196 190 196 186 143 189 205 191 165 183 193 168 173 177 151 148 155 158 146 141 146 158 144 130 134 144 147 148 156 153 157 157 163 162 163 148 150 146 143 142 141 142 144 144 143 142 139 127 119 111 115 121 120 124 129 137 140 128 130 122 115 115 120 128 129 130 132 131
159 241 218 164 190 188 204 230 278 289 125 189 187 197 192 187 171 190 221 176 183 181 170 186 187 194 170 178 178 171 167 181 183 182 179 179 176 172 169 166 145 145 149 153 162 163 165 173 166 164 158 160 142 139 150 145 143 143 143 142 140 142 141 140 141 145 142 141 137 129 123 119 112 123 128 127 127 126 128 127 127 128 136 142 143 145 144
186 231 189 175 209 217 222 185 153 186 205 187 177 218 247 182 153 153 176 140 123 136 174 190 158 169 173 168 181 184 191 188 185 185 184 177 172 183 166 159 162 152 165 167 167 169 171 170 160 150 143 136 133 139 140 144 142 141 145 150 149 152 153 153 154 157 152 148 143 137 138 140 136 127 107 111 121 132 144 149 141 148 147 153 150 151 150
233 15 5 292 71 51 283 253 265 238 191 175 155 138 123 131 127 109 104 103 168 174 180 148 143 151 196 195 183 182 181 181 188 194 187 184 177 163 166 175 172 174 170 170 171 170 167 158 150 146 143 140 145 151 154 153 155 151 152 151 146 147 149 149 155 157 153 152 147 140 132 116 84 92 122 120 122 125 161 151 148 147 146 142 147 146 137
222 217 207 139 141 214 237 230 220 215 208 140 134 112 130 149 140 153 143 71 57 165 153 165 162 176 188 196 180 188 190 194 191 181 178 176 171 171 166 155 171 171 179 173 170 171 160 153 152 149 151 155 161 163 161 163 161 157 152 147 148 155 158 157 152 148 147 141 142 141 138 132 124 97 106 129 146 143 174 176 162 149 146 145 148 144 131
220 221 173 184 170 174 210 197 203 181 172 156 158 182 187 193 182 163 143 135 117 199 210 191 178 186 179 193 183 188 197 205 192 184 170 169 173 171 162 161 179 181 176 170 165 166 162 158 160 163 164 169 168 173 174 174 171 163 155 151 154 155 160 166 161 155 149 145 144 136 135 135 134 133 131 126 134 139 137 133 130 127 123 127 129 132 120
250 166 170 174 149 179 212 203 181 182 183 174 188 194 179 178 176 182 181 177 169 196 191 209 205 186 167 172 176 197 201 173 167 177 178 167 164 160 169 178 178 173 177 179 183 177 163 167 170 169 169 177 179 175 176 176 173 164 165 158 160 167 161 155 148 152 153 149 148 147 150 153 151 146 141 132 122 141 141 132 128 127 125 124 122 120 121
216 194 156 156 141 131 19 119 175 168 180 177 176 195 188 183 195 183 181 186 124 157 176 202 208 174 164 176 183 190 188 186 177 164 159 160 163 170 181 181 189 190 188 183 174 166 167 171 172 174 175 180 176 178 174 176 171 169 173 169 157 155 158 157 158 158 159 159 163 161 161 161 165 161 155 154 147 146 142 134 127 123 121 123 120 114 109
133 109 102 97 89 71 114 82 62 130 166 139 65 72 93 129 146 141 127 129 143 150 155 167 181 212 159 164 183 164 147 172 163 146 156 169 172 173 192 199 192 177 173 172 173 171 173 176 175 175 183 182 179 178 172 174 177 178 177 174 170 165 166 168 160 163 165 167 165 170 169 166 165 165 174 168 159 152 149 150 134 110 99 109 119 110 110
97 134 114 77 52 56 331 139 199 151 141 105 114 111 109 105 115 113 105 88 97 126 157 173 157 155 131 154 150 158 160 138 137 172 183 183 192 201 192 159 170 174 167 166 174 179 177 177 180 188 192 182 169 168 172 174 174 175 175 167 162 169 165 162 163 165 167 165 165 161 166 168 169 171 170 173 165 164 165 165 164 167 176 180 96 122 104
132 23 46 141 178 181 194 118 105 112 100 108 117 109 106 97 93 96 93 86 54 39 50 109 129 132 149 164 148 139 130 159 179 182 187 208 200 143 156 166 164 167 174 178 183 176 178 185 189 191 192 165 166 171 175 174 176 174 169 164 162 162 164 167 163 166 167 165 165 167 168 170 167 161 160 161 166 172 166 154 154 150 157 180 199 109 113
42 10 8 72 117 117 109 110 89 90 79 59 74 94 106 88 78 109 126 136 145 76 115 70 117 168 161 177 164 174 179 179 182 195 203 185 155 165 159 164 167 172 177 184 182 178 180 183 186 193 199 173 170 174 173 175 176 174 170 171 169 169 172 173 169 162 160 160 162 165 157 154 153 158 160 163 161 156 155 156 153 156 152 165 86 169 94
26 4 74 94 109 122 107 101 123 114 106 113 108 86 92 116 121 190 215 211 170 185 216 154 132 173 157 173 199 188 189 197 202 188 166 168 162 154 156 141 123 133 174 206 205 189 184 186 191 200 195 169 171 170 170 174 178 178 178 177 179 174 172 167 164 161 154 155 163 160 157 156 161 162 164 167 170 164 161 160 160 155 161 184 170 170 178
62 58 72 86 96 86 115 136 123 123 123 119 122 124 104 99 132 167 233 241 227 246 239 176 195 199 205 210 211 200 181 172 163 161 156 158 166 170 165 162 166 191 200 208 197 187 189 194 197 204 178 162 167 170 172 177 177 174 176 178 177 169 161 159 165 162 160 161 167 164 165 167 172 170 173 169 166 162 163 161 158 162 167 167 170 180 201
89 63 59 48 49 83 83 96 130 138 154 149 145 171 179 169 185 204 185 191 210 195 183 184 203 213 221 214 150 150 149 143 144 151 164 171 181 188 188 194 206 212 217 168 172 190 196 194 208 204 151 164 170 177 177 179 174 177 184 172 160 167 171 170 168 171 171 172 167 167 174 169 179 178 173 175 173 170 164 162 171 177 177 179 195 206 207
108 76 43 40 41 45 108 166 152 171 164 175 205 205 192 221 194 198 207 206 113 135 168 210 226 231 185 133 144 153 143 124 131 163 182 198 201 198 198 204 213 212 196 190 184 188 191 202 203 146 159 169 175 179 183 180 179 178 176 173 177 171 171 179 173 168 172 176 180 181 179 181 178 177 182 173 169 164 165 170 173 178 184 192 202 217 206
161 179 185 185 172 178 190 209 210 196 221 250 274 302 286 253 234 262 268 203 173 188 209 229 227 171 146 163 159 138 129 126 178 216 215 213 208 203 203 206 211 207 180 129 177 182 193 199 168 167 169 172 177 180 185 184 184 186 178 176 174 173 176 178 174 177 177 187 185 179 180 179 181 181 175 173 170 167 172 175 181 181 189 202 209 217 221
173 188 162 178 188 176 167 167 180 200 201 220 249 248 237 234 219 229 231 183 216 228 231 196 161 154 145 139 151 170 182 206 220 214 215 208 207 198 188 191 207 221 240 236 209 214 197 183 173 163 167 174 180 188 190 191 189 183 181 180 179 176 176 171 179 184 185 182 171 176 183 186 187 180 174 168 172 172 173 177 182 184 190 201 216 211 222
129 159 98 113 148 31 39 41 51 182 192 212 229 231 235 241 242 236 221 231 356 358 338 141 122 120 145 165 186 198 208 221 229 230 221 202 186 151 165 190 202 218 232 248 229 202 190 188 178 168 168 181 188 194 191 191 192 189 183 179 180 178 175 180 179 175 177 173 180 184 186 183 174 175 172 173 171 171 176 182 187 193 192 199 195 193 214
52 79 65 71 76 98 85 74 60 84 102 181 261 315 309 232 208 220 217 247 249 219 171 143 136 163 204 212 212 217 223 223 223 227 209 160 151 162 180 196 199 215 216 243 232 170 192 185 179 173 177 183 192 196 194 184 189 186 178 177 180 176 174 173 178 179 184 185 183 178 177 176 181 179 174 173 179 183 181 186 193 193 197 196 192 192 197
52 65 71 68 61 71 67 44 36 50 51 50 29 38 41 14 359 321 258 248 242 221 184 176 199 216 217 191 198 222 227 220 218 210 176 163 166 167 193 192 211 194 211 230 164 157 189 172 171 174 175 179 182 167 172 187 183 181 180 165 178 179 180 181 180 185 184 184 179 177 181 187 183 182 180 177 185 185 188 189 189 190 196 198 198 198 199
61 45 54 50 60 56 52 39 40 44 45 50 7 12 23 360 349 11 15 335 284 223 176 216 208 199 208 202 228 234 232 223 211 195 180 178 179 183 208 210 212 206 210 106 136 172 162 170 178 182 185 179 170 173 173 184 184 185 172 178 174 182 184 182 183 182 184 180 177 183 184 187 188 183 181 185 184 188 192 188 188 190 190 198 196 209 208
69 56 36 33 52 31 44 37 38 41 31 45 51 23 342 355 358 354 342 356 352 351 242 189 174 211 225 224 234 244 241 217 202 187 193 181 184 222 262 273 246 231 209 167 160 158 174 172 178 193 196 195 184 167 167 178 188 189 179 183 180 180 178 174 150 170 179 167 180 183 187 193 193 188 186 182 186 193 197 195 191 192 193 197 202 208 207
61 40 30 57 59 50 44 29 12 357 27 35 37 19 12 8 341 356 357 347 322 338 323 259 224 245 240 233 236 249 255 188 184 195 167 142 184 217 224 252 232 175 198 194 179 173 172 181 185 190 198 186 190 186 172 178 184 185 183 179 177 178 172 170 181 180 178 177 175 157 171 179 178 191 193 195 205 206 206 205 202 201 196 199 206 205 208
45 63 59 58 46 41 32 18 360 21 17 25 18 14 5 6 13 350 319 322 322 332 336 315 284 278 296 305 293 278 255 209 188 192 179 191 202 202 215 253 107 158 187 178 182 173 180 187 194 195 190 187 188 187 182 181 182 179 187 184 181 164 169 170 166 166 162 145 138 137 151 163 175 182 184 195 212 223 222 219 219 216 213 206 208 210 204
34 47 50 53 41 27 16 21 22 1 345 2 17 1 347 348 1 352 348 349 347 343 341 335 330 324 311 304 296 278 262 225 209 223 235 247 240 229 225 285 13 314 163 176 173 185 188 199 193 203 188 184 186 182 180 182 181 186 191 191 187 174 166 175 174 162 165 168 164 163 162 165 169 178 180 184 198 205 212 214 219 218 212 211 214 210 212
68 61 52 53 36 19 20 15 11 11 16 350 350 344 345 352 11 8 0 351 351 350 352 336 335 325 320 309 294 273 269 213 227 228 222 264 274 264 252 253 206 173 176 173 180 191 196 193 197 189 187 184 179 178 182 188 185 186 189 188 174 159 167 176 183 184 180 170 163 156 163 182 182 176 170 166 158 179 205 215 221 217 217 212 214 212 215
65 60 47 41 42 38 28 14 1 350 320 307 327 340 353 0 350 354 3 358 352 341 349 347 339 330 322 319 294 279 301 279 236 174 210 254 266 287 68 182 185 165 195 187 189 192 194 190 189 182 184 182 179 181 189 190 190 190 190 186 170 173 181 183 185 178 182 162 154 156 181 190 181 186 159 171 187 171 191 206 220 216 210 215 210 213 219
50 52 59 55 43 28 345 297 278 298 319 321 331 343 351 355 341 333 346 350 339 327 319 309 312 315 319 311 302 296 287 290 288 250 241 227 248 279 316 208 201 192 194 193 194 196 194 186 180 180 181 182 180 184 195 193 194 191 184 184 183 171 180 183 177 177 171 151 164 152 155 159 181 180 170 147 171 181 209 205 212 215 213 216 217 216 217
46 36 45 59 12 346 343 321 272 76 34 43 26 337 334 341 329 322 318 313 287 288 303 311 317 302 302 283 292 316 322 309 291 236 244 250 222 253 238 205 200 188 194 199 206 196 190 185 184 182 182 183 182 187 189 191 192 177 174 166 165 169 171 168 171 163 160 161 175 185 196 196 201 195 187 178 188 183 193 208 215 219 213 213 221 221 221
35 36 0 9 1 323 13 50 60 53 47 35 294 296 293 307 311 307 309 321 321 324 331 339 337 328 339 347 333 326 305 291 291 301 100 212 312 156 203 189 213 208 206 203 195 193 183 183 183 181 182 181 184 189 191 193 192 183 173 164 163 165 164 156 168 168 162 162 170 153 164 191 201 199 189 188 194 180 200 212 220 220 217 214 221 222 223
47 360 328 42 51 49 54 53 46 43 354 333 354 314 304 313 307 314 309 333 339 336 323 323 324 325 326 325 321 314 287 281 244 262 349 103 244 240 248 238 230 205 194 191 185 192 175 178 179 179 178 179 183 186 188 190 189 175 155 166 158 156 155 163 157 149 160 167 172 172 189 192 199 191 198 205 199 202 214 219 222 220 223 219 223 226 227
340 22 21 17 17 12 18 26 12 324 296 333 325 309 322 345 352 317 317 330 304 289 303 302 307 312 310 314 318 307 312 316 312 291 290 258 252 275 253 218 207 195 185 183 165 147 159 163 164 169 171 175 175 177 181 183 183 188 180 169 168 159 174 150 136 147 140 162 177 185 195 198 197 207 209 205 213 216 220 221 224 228 230 231 229 232 228
355 355 337 329 326 310 282 239 256 287 303 293 294 301 326 337 302 297 316 299 310 316 303 302 304 286 303 313 320 323 327 314 312 317 302 294 308 306 341 127 139 138 129 127 123 136 147 162 166 163 168 173 167 178 180 188 187 181 176 154 155 148 163 167 163 178 188 185 186 194 203 203 203 202 197 207 214 220 221 220 224 226 225 229 231 232 234
284 294 294 302 298 293 297 293 298 290 288 319 312 311 308 290 303 306 303 295 280 276 293 311 315 305 82 327 322 326 326 333 327 328 349 343 36 24 49 78 82 86 101 113 119 123 130 138 140 162 171 166 175 174 156 149 173 183 185 179 176 181 165 174 175 177 193 195 195 201 210 212 208 210 216 216 217 219 222 221 225 228 230 232 231 233 237